| time (UTC) | temp F | wind direction | speed MPH | gust MPH | rain 1hr in | rain 24hr in | rain mn in | humidity % | barometer mb |
| 20260906091203 | 54 | 326 | 1.0 | 4.0 | 0.00 | 0.00 | 0.00 | 89 | 1012.3 |
| 20260906090203 | 54 | 326 | 1.0 | 3.0 | 0.00 | 0.00 | 0.00 | 90 | 1012.3 |
| 20260906085202 | 54 | 326 | 1.0 | 4.0 | 0.00 | 0.00 | 0.00 | 90 | 1012.3 |
| 20260906084224 | 54 | 326 | 1.0 | 2.0 | 0.00 | 0.00 | 0.00 | 90 | 1012.3 |
| 20260906083203 | 54 | 326 | 1.0 | 4.0 | 0.00 | 0.00 | 0.00 | 89 | 1012.3 |
| 20260906082202 | 55 | 326 | 0.0 | 3.0 | 0.00 | 0.00 | 0.00 | 88 | 1012.2 |
| 20260906081203 | 55 | 326 | 1.0 | 5.0 | 0.00 | 0.00 | 0.00 | 87 | 1012.1 |
| 20260906080203 | 55 | 326 | 0.0 | 6.0 | 0.00 | 0.00 | 0.00 | 88 | 1012.1 |
| 20260906075203 | 55 | 357 | 0.0 | 3.0 | 0.00 | 0.00 | 0.00 | 89 | 1011.9 |
| 20260906074223 | 54 | 357 | 1.0 | 4.0 | 0.00 | 0.00 | 0.00 | 90 | 1011.9 |
| 20260906073203 | 54 | 100 | 0.0 | 3.0 | 0.00 | 0.00 | 0.00 | 92 | 1011.9 |
| 20260906072202 | 54 | 318 | 0.0 | 2.0 | 0.00 | 0.00 | 0.00 | 93 | 1011.7 |
| 20260906071203 | 53 | 318 | 0.0 | 2.0 | 0.00 | 0.00 | 0.00 | 93 | 1011.9 |
| 20260906070202 | 53 | 318 | 0.0 | 1.0 | 0.00 | 0.00 | 0.00 | 92 | 1011.8 |
| 20260906065203 | 54 | 318 | 0.0 | 1.0 | 0.00 | 0.00 | 0.00 | 91 | 1011.8 |
| 20260906064203 | 54 | 17 | 1.0 | 3.0 | 0.00 | 0.00 | 0.00 | 90 | 1011.7 |
| 20260906063203 | 55 | 55 | 0.0 | 1.0 | 0.00 | 0.00 | 0.00 | 89 | 1011.7 |
| 20260906062203 | 55 | 55 | 0.0 | 3.0 | 0.00 | 0.00 | 0.00 | 90 | 1011.6 |
| 20260906061203 | 55 | 55 | 0.0 | 1.0 | 0.00 | 0.00 | 0.00 | 90 | 1011.6 |
| 20260906060203 | 55 | 55 | 0.0 | 1.0 | 0.00 | 0.00 | 0.00 | 90 | 1011.7 |
| 20260906055202 | 55 | 55 | 0.0 | 1.0 | 0.00 | 0.00 | 0.00 | 91 | 1011.7 |
| 20260906054203 | 54 | 55 | 0.0 | 1.0 | 0.00 | 0.00 | 0.00 | 91 | 1011.8 |
| 20260906053202 | 55 | 56 | 1.0 | 3.0 | 0.00 | 0.00 | 0.00 | 91 | 1011.7 |
| 20260906052224 | 55 | 63 | 0.0 | 3.0 | 0.00 | 0.00 | 0.00 | 90 | 1011.7 |
| 20260906051203 | 55 | 63 | 0.0 | 1.0 | 0.00 | 0.00 | 0.00 | 90 | 1011.7 |
| 20260906050202 | 56 | 63 | 0.0 | 2.0 | 0.00 | 0.00 | 0.00 | 89 | 1011.9 |
| 20260906045204 | 56 | 63 | 1.0 | 3.0 | 0.00 | 0.00 | 0.00 | 89 | 1011.8 |
| 20260906044202 | 56 | 65 | 0.0 | 1.0 | 0.00 | 0.00 | 0.00 | 88 | 1011.7 |
| 20260906043203 | 56 | 65 | 0.0 | 1.0 | 0.00 | 0.00 | 0.00 | 88 | 1011.6 |
| 20260906042203 | 56 | 65 | 0.0 | 1.0 | 0.00 | 0.00 | 0.00 | 88 | 1011.6 |
| 20260906041202 | 56 | 65 | 0.0 | 1.0 | 0.00 | 0.00 | 0.00 | 89 | 1011.6 |
| 20260906040203 | 56 | 65 | 0.0 | 1.0 | 0.00 | 0.00 | 0.00 | 88 | 1011.6 |
| 20260906035223 | 57 | 65 | 0.0 | 1.0 | 0.00 | 0.00 | 0.00 | 86 | 1011.6 |
| 20260906034203 | 58 | 65 | 0.0 | 2.0 | 0.00 | 0.00 | 0.00 | 84 | 1011.5 |
| 20260906033203 | 58 | 65 | 0.0 | 2.0 | 0.00 | 0.00 | 0.00 | 85 | 1011.6 |
| 20260906032203 | 57 | 65 | 0.0 | 0.0 | 0.00 | 0.00 | 0.00 | 87 | 1011.7 |
| 20260906031203 | 58 | 65 | 0.0 | 0.0 | 0.00 | 0.00 | 0.00 | 85 | 1011.6 |
| 20260906030202 | 59 | 65 | 0.0 | 1.0 | 0.00 | 0.00 | 0.00 | 83 | 1011.4 |
| 20260906025224 | 60 | 65 | 0.0 | 2.0 | 0.00 | 0.00 | 0.00 | 80 | 1011.5 |
| 20260906024224 | 60 | 65 | 2.0 | 4.0 | 0.00 | 0.00 | 0.00 | 81 | 1011.5 |
| 20260906023225 | 60 | 65 | 1.0 | 2.0 | 0.00 | 0.00 | 0.00 | 81 | 1011.5 |
| 20260906022202 | 61 | 65 | 0.0 | 5.0 | 0.00 | 0.00 | 0.00 | 79 | 1011.4 |
| 20260906021203 | 61 | 65 | 1.0 | 4.0 | 0.00 | 0.00 | 0.00 | 79 | 1011.4 |
| 20260906020203 | 62 | 65 | 1.0 | 3.0 | 0.00 | 0.00 | 0.00 | 78 | 1011.4 |
| 20260906015203 | 62 | 65 | 1.0 | 4.0 | 0.00 | 0.00 | 0.00 | 78 | 1011.4 |
| 20260906014203 | 62 | 65 | 1.0 | 4.0 | 0.00 | 0.00 | 0.00 | 77 | 1011.4 |
| 20260906013202 | 63 | 65 | 1.0 | 4.0 | 0.00 | 0.00 | 0.00 | 76 | 1011.3 |
| 20260906012203 | 63 | 62 | 2.0 | 6.0 | 0.00 | 0.00 | 0.00 | 76 | 1011.4 |
| 20260906011203 | 63 | 61 | 2.0 | 8.0 | 0.00 | 0.00 | 0.00 | 75 | 1011.3 |
| 20260906010202 | 63 | 66 | 2.0 | 4.0 | 0.00 | 0.00 | 0.00 | 75 | 1011.2 |
| 20260906005203 | 63 | 65 | 1.0 | 3.0 | 0.00 | 0.00 | 0.00 | 75 | 1011.2 |
| 20260906004224 | 64 | 65 | 2.0 | 5.0 | 0.00 | 0.00 | 0.00 | 74 | 1011.3 |
| 20260906003203 | 63 | 61 | 2.0 | 4.0 | 0.00 | 0.00 | 0.00 | 75 | 1011.1 |
| 20260906002203 | 64 | 61 | 1.0 | 2.0 | 0.00 | 0.00 | 0.00 | 74 | 1011.0 |
| 20260906001203 | 64 | 61 | 1.0 | 2.0 | 0.00 | 0.00 | 0.00 | 74 | 1011.0 |
| 20260906000223 | 63 | 61 | 0.0 | 1.0 | 0.00 | 0.00 | 0.00 | 78 | 1010.9 |
| 20260905235224 | 63 | 61 | 0.0 | 3.0 | 0.00 | 0.00 | 0.00 | 81 | 1010.9 |
| 20260905234202 | 63 | 61 | 0.0 | 0.0 | 0.00 | 0.00 | 0.00 | 81 | 1010.8 |
| 20260905233204 | 64 | 61 | 0.0 | 0.0 | 0.00 | 0.00 | 0.00 | 79 | 1010.7 |
| 20260905232202 | 64 | 61 | 0.0 | 0.0 | 0.00 | 0.00 | 0.00 | 78 | 1010.7 |
| 20260905231203 | 65 | 61 | 0.0 | 2.0 | 0.00 | 0.00 | 0.00 | 75 | 1010.6 |
| 20260905230203 | 65 | 61 | 0.0 | 4.0 | 0.00 | 0.00 | 0.00 | 74 | 1010.6 |
| 20260905225223 | 66 | 64 | 3.0 | 5.0 | 0.00 | 0.00 | 0.00 | 71 | 1010.6 |
| 20260905224203 | 67 | 64 | 2.0 | 7.0 | 0.00 | 0.00 | 0.00 | 66 | 1010.6 |
| 20260905223224 | 67 | 58 | 3.0 | 9.0 | 0.00 | 0.00 | 0.00 | 66 | 1010.4 |
| 20260905222203 | 67 | 41 | 3.0 | 9.0 | 0.00 | 0.00 | 0.00 | 66 | 1010.3 |
| 20260905221203 | 67 | 49 | 2.0 | 9.0 | 0.00 | 0.00 | 0.00 | 68 | 1010.1 |
| 20260905220202 | 68 | 54 | 1.0 | 4.0 | 0.00 | 0.00 | 0.00 | 70 | 1010.0 |
| 20260905215203 | 67 | 59 | 0.0 | 2.0 | 0.00 | 0.00 | 0.00 | 69 | 1009.8 |
| 20260905214202 | 67 | 59 | 1.0 | 3.0 | 0.00 | 0.00 | 0.00 | 68 | 1009.7 |
| 20260905213225 | 67 | 59 | 1.0 | 3.0 | 0.00 | 0.00 | 0.00 | 69 | 1009.6 |
| 20260905212203 | 68 | 59 | 3.0 | 7.0 | 0.00 | 0.00 | 0.00 | 67 | 1009.6 |
| 20260905211202 | 68 | 74 | 3.0 | 8.0 | 0.00 | 0.00 | 0.00 | 65 | 1009.4 |
| 20260905210204 | 70 | 53 | 2.0 | 8.0 | 0.00 | 0.00 | 0.00 | 64 | 1009.2 |
| 20260905205203 | 69 | 64 | 3.0 | 5.0 | 0.00 | 0.00 | 0.00 | 64 | 1009.3 |
| 20260905204202 | 68 | 54 | 1.0 | 4.0 | 0.00 | 0.07 | 0.00 | 67 | 1009.2 |
| 20260905203224 | 68 | 71 | 3.0 | 8.0 | 0.00 | 0.23 | 0.00 | 67 | 1009.2 |
| 20260905202203 | 68 | 65 | 2.0 | 9.0 | 0.00 | 0.23 | 0.00 | 66 | 1009.2 |
| 20260905201203 | 69 | 56 | 2.0 | 10.0 | 0.00 | 0.23 | 0.00 | 65 | 1009.0 |
| 20260905200225 | 69 | 21 | 2.0 | 11.0 | 0.00 | 0.23 | 0.00 | 64 | 1008.9 |
| 20260905195203 | 70 | 56 | 3.0 | 8.0 | 0.00 | 0.23 | 0.00 | 62 | 1008.7 |
| 20260905194202 | 70 | 56 | 6.0 | 13.0 | 0.00 | 0.23 | 0.00 | 62 | 1008.7 |
| 20260905193203 | 71 | 58 | 3.0 | 7.0 | 0.00 | 0.23 | 0.00 | 62 | 1008.6 |
| 20260905192224 | 69 | 66 | 3.0 | 13.0 | 0.00 | 0.23 | 0.00 | 66 | 1008.8 |
| 20260905191202 | 69 | 353 | 3.0 | 12.0 | 0.00 | 0.23 | 0.00 | 66 | 1008.8 |
| 20260905190203 | 68 | 57 | 2.0 | 9.0 | 0.00 | 0.23 | 0.00 | 68 | 1008.9 |
| 20260905185202 | 67 | 49 | 3.0 | 8.0 | 0.00 | 0.23 | 0.00 | 68 | 1008.9 |
| 20260905184224 | 68 | 5 | 2.0 | 9.0 | 0.00 | 0.23 | 0.00 | 68 | 1008.8 |
| 20260905183203 | 69 | 24 | 4.0 | 10.0 | 0.00 | 0.23 | 0.00 | 64 | 1008.6 |
| 20260905182203 | 71 | 67 | 3.0 | 11.0 | 0.00 | 0.23 | 0.00 | 63 | 1008.6 |
| 20260905181203 | 70 | 67 | 3.0 | 8.0 | 0.00 | 0.23 | 0.00 | 65 | 1008.7 |
| 20260905180203 | 70 | 49 | 3.0 | 8.0 | 0.00 | 0.23 | 0.00 | 66 | 1008.9 |
| 20260905175204 | 69 | 37 | 4.0 | 15.0 | 0.00 | 0.23 | 0.00 | 65 | 1008.9 |
| 20260905174203 | 70 | 60 | 5.0 | 12.0 | 0.00 | 0.23 | 0.00 | 64 | 1008.8 |
| 20260905173202 | 70 | 53 | 5.0 | 18.0 | 0.00 | 0.23 | 0.00 | 65 | 1008.9 |
| 20260905172224 | 69 | 49 | 5.0 | 16.0 | 0.00 | 0.23 | 0.00 | 68 | 1008.9 |
| 20260905171204 | 70 | 55 | 5.0 | 14.0 | 0.00 | 0.23 | 0.00 | 64 | 1008.9 |
| 20260905170203 | 69 | 59 | 3.0 | 10.0 | 0.00 | 0.23 | 0.00 | 66 | 1008.9 |
| 20260905165203 | 69 | 25 | 4.0 | 13.0 | 0.00 | 0.23 | 0.00 | 67 | 1009.1 |
| 20260905164203 | 69 | 53 | 4.0 | 11.0 | 0.00 | 0.23 | 0.00 | 68 | 1009.0 |
| 20260905163203 | 69 | 25 | 4.0 | 12.0 | 0.00 | 0.23 | 0.00 | 67 | 1009.0 |
| 20260905162203 | 68 | 65 | 4.0 | 14.0 | 0.00 | 0.23 | 0.00 | 69 | 1009.1 |
| 20260905161223 | 68 | 56 | 6.0 | 14.0 | 0.00 | 0.23 | 0.00 | 69 | 1009.0 |
| 20260905160245 | 68 | 63 | 4.0 | 15.0 | 0.00 | 0.23 | 0.00 | 70 | 1009.0 |
| 20260905155203 | 69 | 59 | 6.0 | 14.0 | 0.00 | 0.23 | 0.00 | 68 | 1009.0 |
| 20260905154224 | 68 | 63 | 4.0 | 10.0 | 0.00 | 0.23 | 0.00 | 73 | 1009.0 |
| 20260905153223 | 68 | 62 | 8.0 | 14.0 | 0.00 | 0.23 | 0.00 | 71 | 1008.9 |
| 20260905152203 | 69 | 70 | 4.0 | 14.0 | 0.00 | 0.23 | 0.00 | 72 | 1008.8 |
| 20260905151203 | 68 | 62 | 4.0 | 12.0 | 0.00 | 0.23 | 0.00 | 71 | 1008.8 |
| 20260905150203 | 68 | 51 | 4.0 | 15.0 | 0.00 | 0.23 | 0.00 | 72 | 1008.8 |
| 20260905145203 | 68 | 51 | 6.0 | 14.0 | 0.00 | 0.23 | 0.00 | 73 | 1008.8 |
| 20260905144202 | 68 | 69 | 5.0 | 16.0 | 0.00 | 0.23 | 0.00 | 75 | 1008.7 |
| 20260905143203 | 66 | 54 | 4.0 | 14.0 | 0.00 | 0.23 | 0.00 | 78 | 1008.7 |
| 20260905142202 | 66 | 54 | 4.0 | 14.0 | 0.00 | 0.23 | 0.00 | 80 | 1008.5 |
| 20260905141203 | 67 | 54 | 7.0 | 12.0 | 0.00 | 0.23 | 0.00 | 79 | 1008.3 |
| 20260905140202 | 67 | 70 | 5.0 | 10.0 | 0.00 | 0.23 | 0.00 | 80 | 1008.2 |
| 20260905135203 | 66 | 62 | 6.0 | 10.0 | 0.00 | 0.23 | 0.00 | 82 | 1008.3 |
| 20260905134203 | 65 | 62 | 4.0 | 7.0 | 0.00 | 0.23 | 0.00 | 83 | 1008.2 |
| 20260905133203 | 65 | 60 | 4.0 | 11.0 | 0.00 | 0.23 | 0.00 | 83 | 1008.0 |
| 20260905132224 | 65 | 67 | 4.0 | 8.0 | 0.00 | 0.23 | 0.00 | 85 | 1008.0 |
| 20260905131202 | 64 | 66 | 3.0 | 7.0 | 0.00 | 0.23 | 0.00 | 89 | 1008.0 |
| 20260905130203 | 64 | 315 | 2.0 | 9.0 | 0.00 | 0.23 | 0.00 | 88 | 1007.9 |
| 20260905125202 | 65 | 57 | 4.0 | 9.0 | 0.00 | 0.23 | 0.00 | 88 | 1007.8 |
| 20260905124203 | 64 | 60 | 1.0 | 4.0 | 0.00 | 0.23 | 0.00 | 90 | 1007.9 |
| 20260905123203 | 64 | 64 | 2.0 | 8.0 | 0.00 | 0.23 | 0.00 | 90 | 1007.8 |
| 20260905122202 | 63 | 65 | 2.0 | 7.0 | 0.00 | 0.23 | 0.00 | 90 | 1007.7 |
| 20260905121204 | 63 | 29 | 2.0 | 8.0 | 0.00 | 0.23 | 0.00 | 91 | 1007.7 |
| 20260905120202 | 63 | 62 | 3.0 | 8.0 | 0.00 | 0.23 | 0.00 | 91 | 1007.6 |
| 20260905115204 | 63 | 74 | 2.0 | 7.0 | 0.00 | 0.23 | 0.00 | 90 | 1007.5 |
| 20260905114203 | 63 | 82 | 2.0 | 7.0 | 0.00 | 0.23 | 0.00 | 90 | 1007.4 |
| 20260905113224 | 63 | 356 | 1.0 | 11.0 | 0.00 | 0.23 | 0.00 | 90 | 1007.4 |
| 20260905112203 | 62 | 325 | 2.0 | 10.0 | 0.00 | 0.23 | 0.00 | 90 | 1007.2 |
| 20260905111203 | 62 | 334 | 2.0 | 8.0 | 0.00 | 0.23 | 0.00 | 91 | 1007.1 |
| 20260905110203 | 62 | 58 | 2.0 | 7.0 | 0.00 | 0.23 | 0.00 | 91 | 1007.0 |
| 20260905105223 | 61 | 10 | 2.0 | 7.0 | 0.00 | 0.23 | 0.00 | 92 | 1006.8 |
| 20260905104203 | 61 | 103 | 2.0 | 7.0 | 0.00 | 0.23 | 0.00 | 92 | 1006.7 |
| 20260905103203 | 61 | 297 | 1.0 | 6.0 | 0.00 | 0.23 | 0.00 | 92 | 1006.7 |
| 20260905102203 | 61 | 306 | 2.0 | 7.0 | 0.00 | 0.23 | 0.00 | 93 | 1006.6 |
| 20260905101204 | 61 | 350 | 2.0 | 8.0 | 0.00 | 0.23 | 0.00 | 92 | 1006.5 |
| 20260905100203 | 61 | 20 | 1.0 | 8.0 | 0.00 | 0.23 | 0.00 | 92 | 1006.4 |
| 20260905095203 | 61 | 307 | 1.0 | 6.0 | 0.00 | 0.23 | 0.00 | 92 | 1006.4 |
| 20260905094224 | 61 | 338 | 2.0 | 6.0 | 0.00 | 0.23 | 0.00 | 91 | 1006.3 |
| 20260905093202 | 61 | 330 | 2.0 | 8.0 | 0.00 | 0.23 | 0.00 | 91 | 1006.2 |
| 20260905092204 | 62 | 309 | 2.0 | 11.0 | 0.00 | 0.23 | 0.00 | 92 | 1006.1 |